This is the latest recevied weather packets stored in our database for station/object SP3TOM-10. If no packets are shown the sender has not sent any weather packets the latest 10 day(s).
| Time | Temp. | Humidity | Pressure | Rain* | Wind** | Luminosity | Snow |
|---|---|---|---|---|---|---|---|
| 1777564852 | 18.89° C | 30% | 1017 hPa | - | - | - | - |
| 1777563952 | 18.89° C | 30% | 1017.1 hPa | - | - | - | - |
| 1777563052 | 18.89° C | 30% | 1017.2 hPa | - | - | - | - |
| 1777562152 | 18.89° C | 30% | 1017.3 hPa | - | - | - | - |
| 1777561252 | 18.89° C | 29% | 1017.4 hPa | - | - | - | - |
| 1777560351 | 18.89° C | 29% | 1017.6 hPa | - | - | - | - |
| 1777559451 | 18.89° C | 29% | 1017.6 hPa | - | - | - | - |
| 1777558551 | 18.33° C | 29% | 1017.8 hPa | - | - | - | - |
| 1777557651 | 18.33° C | 28% | 1017.9 hPa | - | - | - | - |
| 1777556751 | 18.33° C | 29% | 1018.1 hPa | - | - | - | - |
| 1777555851 | 18.33° C | 28% | 1018.1 hPa | - | - | - | - |
| 1777554950 | 18.89° C | 28% | 1018.2 hPa | - | - | - | - |
| 1777554050 | 18.33° C | 28% | 1018.4 hPa | - | - | - | - |
| 1777553150 | 18.33° C | 28% | 1018.5 hPa | - | - | - | - |
| 1777552250 | 18.89° C | 28% | 1018.7 hPa | - | - | - | - |
| 1777551350 | 18.89° C | 28% | 1018.8 hPa | - | - | - | - |
| 1777550450 | 17.78° C | 28% | 1019 hPa | - | - | - | - |
| 1777549549 | 17.78° C | 29% | 1019 hPa | - | - | - | - |
| 1777548649 | 17.22° C | 29% | 1019.1 hPa | - | - | - | - |
| 1777547749 | 16.67° C | 29% | 1019.2 hPa | - | - | - | - |
| 1777546849 | 16.67° C | 29% | 1019.3 hPa | - | - | - | - |
| 1777545949 | 16.11° C | 30% | 1019.5 hPa | - | - | - | - |
| 1777545049 | 15.56° C | 30% | 1019.7 hPa | - | - | - | - |
| 1777544148 | 15.56° C | 29% | 1019.6 hPa | - | - | - | - |
| 1777543248 | 14.44° C | 31% | 1019.7 hPa | - | - | - | - |
* Rain since midnight (hover to see other rain measurements)
** Current wind speed in m/s (hover to see current wind gust speed)